Sid Moller — WDF9421 — position and weather

sailwx.info

Track history (hours):
 
Tides and Currents Weather Stations Pressure Air Temp Water Temp Dewpoint Dewpoint Depression Visibility Wind Speed Wind Dir Waves Ship Positions

Sid Moller

Owner: Genesis Marine, LLC, Houston, TX. More information available from US FCC via Universal Licensing System and Coast Guard Vessel Documentation Center.

Last reported at 2014-Oct-31 08:18 UTC. Time now 2014-Oct-31 09:13 UTC.
Position N 29°46' W 095°06'.

; draft 2.7 m.

Type: Towing. MMSI: 367504980.

Date/timePositionNaut miles runAvg speedWind from/ knotsBaromVisibWave heightAir tempDewpointWater temp
2014-Oct-31 08:18N 29°46' W 095°06'0 0.0
2014-Oct-31 07:33N 29°46' W 095°06'0 0.0
2014-Oct-31 06:06N 29°46' W 095°06'0 0.0
2014-Oct-31 05:30N 29°46' W 095°06'0 0.0
2014-Oct-31 04:16N 29°46' W 095°06'0 0.0
2014-Oct-31 03:22N 29°46' W 095°06'0 0.0
2014-Oct-31 02:28N 29°46' W 095°06'0 0.0
2014-Oct-31 01:05N 29°46' W 095°06'0 0.0
2014-Oct-31 00:33N 29°46' W 095°06'0 0.0
2014-Oct-30 23:26N 29°46' W 095°06'0 0.0
2014-Oct-30 22:26N 29°46' W 095°06'0 0.0
2014-Oct-30 21:33N 29°46' W 095°06'0 0.0
2014-Oct-30 20:30N 29°46' W 095°06'0 0.0
2014-Oct-30 19:25N 29°46' W 095°06'0 0.0
2014-Oct-30 18:32N 29°46' W 095°06'0 0.0
2014-Oct-30 17:33N 29°46' W 095°06'0 0.0
2014-Oct-30 16:30N 29°46' W 095°06'0 0.0
2014-Oct-30 15:32N 29°46' W 095°06'0 0.0
2014-Oct-30 14:33N 29°46' W 095°06'1 0.6
2014-Oct-30 13:32N 29°45' W 095°06'0 0.0
2014-Oct-30 12:32N 29°45' W 095°06'0 0.0
2014-Oct-29 21:33N 29°45' W 095°06'1 0.7
2014-Oct-29 20:33N 29°46' W 095°06'4 3.8
2014-Oct-29 19:33N 29°44' W 095°02'1 1.0
2014-Oct-29 18:33N 29°44' W 095°03'4 3.8
2014-Oct-29 17:30N 29°44' W 095°08'0 0.1
2014-Oct-29 15:33N 29°44' W 095°08'0 0.0
2014-Oct-29 13:31N 29°44' W 095°08'0 0.0
2014-Oct-29 12:33N 29°44' W 095°08'0 0.0
2014-Oct-29 11:33N 29°44' W 095°08'0 0.0
2014-Oct-29 10:30N 29°44' W 095°08'0 0.0
2014-Oct-29 09:33N 29°44' W 095°08'0 0.0
2014-Oct-29 08:33N 29°44' W 095°08'0 0.0
2014-Oct-29 07:33N 29°44' W 095°08'0 0.0
2014-Oct-29 06:33N 29°44' W 095°08'0 0.0
2014-Oct-29 05:33N 29°44' W 095°08'0 0.0
2014-Oct-29 04:33N 29°44' W 095°08'0 0.0
2014-Oct-29 03:31N 29°44' W 095°08'0 0.0
2014-Oct-29 02:33N 29°44' W 095°08'0 0.0
2014-Oct-29 01:12N 29°44' W 095°08'0 0.0
2014-Oct-29 00:27N 29°44' W 095°08'0 0.0
2014-Oct-28 20:06N 29°44' W 095°08'0 0.4
2014-Oct-28 19:33N 29°44' W 095°08'3 2.6
2014-Oct-28 18:33N 29°46' W 095°05'0 0.0
2014-Oct-28 17:33N 29°46' W 095°05'0 0.0
2014-Oct-28 16:33N 29°46' W 095°05'0 0.0
2014-Oct-28 15:33N 29°46' W 095°05'0 0.0
2014-Oct-28 14:33N 29°46' W 095°05'2 2.0
2014-Oct-28 13:33N 29°45' W 095°04'4 4.1
2014-Oct-28 12:33N 29°42' W 095°00'5 0.4
2014-Oct-28 00:20N 29°37' W 095°01'0 0.0
2014-Oct-27 23:33N 29°37' W 095°01'0 0.0
2014-Oct-27 22:33N 29°37' W 095°01'0 0.0
2014-Oct-27 21:33N 29°37' W 095°01'0 0.0
2014-Oct-27 20:33N 29°37' W 095°01'0 0.0
2014-Oct-27 19:33N 29°37' W 095°01'0 0.0
2014-Oct-27 18:33N 29°37' W 095°01'0 0.0
2014-Oct-27 17:33N 29°37' W 095°01'0 0.0
2014-Oct-27 16:33N 29°37' W 095°01'0 0.0
2014-Oct-27 15:33N 29°37' W 095°01'0 0.1
2014-Oct-27 14:33N 29°37' W 095°01'0 0.0
2014-Oct-27 13:33N 29°37' W 095°01'0 0.1
2014-Oct-27 12:33N 29°37' W 095°01'0 0.2
2014-Oct-27 11:34N 29°37' W 095°02'0 0.0
2014-Oct-27 10:33N 29°37' W 095°02'0 0.0
2014-Oct-27 09:33N 29°37' W 095°02'0 0.0
2014-Oct-27 08:33N 29°37' W 095°02'0 0.0
2014-Oct-27 07:33N 29°37' W 095°02'0 0.0
2014-Oct-27 06:33N 29°37' W 095°02'0 0.0
2014-Oct-27 05:33N 29°37' W 095°02'0 0.0
2014-Oct-27 04:33N 29°37' W 095°02'0 0.0
2014-Oct-27 03:33N 29°37' W 095°02'0 0.0
2014-Oct-27 02:33N 29°37' W 095°02'0 0.0
2014-Oct-27 01:33N 29°37' W 095°02'0 0.0
2014-Oct-27 00:33N 29°37' W 095°02'0 0.0
2014-Oct-26 23:33N 29°37' W 095°02'0 0.0
2014-Oct-26 22:33N 29°37' W 095°02'0 0.0
2014-Oct-26 21:33N 29°37' W 095°02'0 0.0
2014-Oct-26 20:33N 29°37' W 095°02'0 0.0
2014-Oct-26 19:33N 29°37' W 095°01'0 0.0
2014-Oct-26 18:33N 29°37' W 095°01'0 0.0
2014-Oct-26 17:33N 29°37' W 095°01'0 0.0
2014-Oct-26 16:33N 29°37' W 095°01'0 0.0
2014-Oct-26 15:33N 29°37' W 095°01'0 0.1
2014-Oct-26 14:33N 29°37' W 095°01'0 0.0
2014-Oct-26 13:33N 29°37' W 095°01'0 0.0
2014-Oct-26 12:33N 29°37' W 095°01'0 0.0
2014-Oct-26 06:33N 29°37' W 095°01'0 0.0
2014-Oct-26 05:33N 29°37' W 095°01'0 0.0
2014-Oct-26 04:33N 29°37' W 095°01'0 0.0
2014-Oct-26 03:33N 29°37' W 095°01'0 0.0
2014-Oct-26 02:33N 29°37' W 095°01'0 0.0
2014-Oct-26 01:33N 29°37' W 095°01'0 0.0
2014-Oct-26 00:33N 29°37' W 095°01'0 0.0
2014-Oct-25 23:33N 29°37' W 095°01'0 0.0
2014-Oct-25 22:33N 29°37' W 095°01'0 0.0
2014-Oct-25 21:33N 29°37' W 095°01'0 0.0
2014-Oct-25 20:33N 29°37' W 095°01'0 0.0
2014-Oct-25 19:33N 29°37' W 095°01'0 0.0
2014-Oct-25 18:33N 29°37' W 095°01'0 0.0
2014-Oct-25 17:33N 29°37' W 095°01'0 0.0
2014-Oct-25 16:33N 29°37' W 095°01'0 0.0
2014-Oct-25 15:33N 29°37' W 095°01'0 0.0
2014-Oct-25 14:33N 29°37' W 095°01'0 0.0
2014-Oct-25 13:33N 29°37' W 095°01'0 0.0
2014-Oct-25 12:33N 29°37' W 095°01'0 0.0
2014-Oct-25 11:33N 29°37' W 095°01'0 0.0
2014-Oct-25 10:33N 29°37' W 095°01'0 0.0
2014-Oct-25 09:33N 29°37' W 095°01'0 0.0
2014-Oct-25 08:33N 29°37' W 095°01'0 0.0
2014-Oct-25 07:33N 29°37' W 095°01'0 0.0
2014-Oct-25 06:33N 29°37' W 095°01'0 0.0
2014-Oct-25 05:33N 29°37' W 095°01'0 0.0
2014-Oct-25 04:33N 29°37' W 095°01'0 0.0
2014-Oct-25 03:33N 29°37' W 095°01'0 0.0
2014-Oct-25 02:33N 29°37' W 095°01'0 0.0
2014-Oct-25 01:33N 29°37' W 095°01'0 0.0
2014-Oct-25 00:33N 29°37' W 095°01'0 0.0
2014-Oct-24 23:33N 29°37' W 095°01'0 0.0
2014-Oct-24 22:33N 29°37' W 095°01'0 0.0
2014-Oct-24 21:33N 29°37' W 095°01'0 0.0
2014-Oct-24 20:33N 29°37' W 095°01'0 0.0
2014-Oct-24 19:33N 29°37' W 095°01'0 0.0
2014-Oct-24 18:33N 29°37' W 095°01'0 0.0
2014-Oct-24 17:33N 29°37' W 095°01'0 0.0
2014-Oct-24 16:33N 29°37' W 095°01'0 0.0
2014-Oct-24 15:33N 29°37' W 095°01'0 0.1
2014-Oct-24 14:33N 29°37' W 095°01'4 4.5
2014-Oct-24 13:33N 29°36' W 094°56'6 6.5
2014-Oct-24 12:33N 29°30' W 094°52'6 6.0
2014-Oct-24 11:30N 29°24' W 094°49'3 3.2
2014-Oct-24 10:31N 29°23' W 094°46'3 3.5
2014-Oct-24 09:31N 29°26' W 094°43'4 3.9
2014-Oct-24 08:30N 29°28' W 094°39'5 4.4
2014-Oct-24 07:26N 29°30' W 094°34'7 3.2
2014-Oct-24 05:11N 29°34' W 094°27'3 3.8
2014-Oct-24 04:29N 29°35' W 094°25'  
Track history (hours):
 
Tides and Currents Weather Stations Pressure Air Temp Water Temp Dewpoint Dewpoint Depression Visibility Wind Speed Wind Dir Waves Ship Positions

Sid Moller

Owner: Genesis Marine, LLC, Houston, TX. More information available from US FCC via Universal Licensing System and Coast Guard Vessel Documentation Center.

Last reported at 2014-Oct-31 08:18 UTC. Time now 2014-Oct-31 09:13 UTC.
Position N 29°46' W 095°06'.

; draft 2.7 m.

Type: Towing. MMSI: 367504980.

Date/timePositionNaut miles runAvg speedWind from/ knotsBaromVisibWave heightAir tempDewpointWater temp
2014-Oct-31 08:18N 29°46' W 095°06'0 0.0
2014-Oct-31 07:33N 29°46' W 095°06'0 0.0
2014-Oct-31 06:06N 29°46' W 095°06'0 0.0
2014-Oct-31 05:30N 29°46' W 095°06'0 0.0
2014-Oct-31 04:16N 29°46' W 095°06'0 0.0
2014-Oct-31 03:22N 29°46' W 095°06'0 0.0
2014-Oct-31 02:28N 29°46' W 095°06'0 0.0
2014-Oct-31 01:05N 29°46' W 095°06'0 0.0
2014-Oct-31 00:33N 29°46' W 095°06'0 0.0
2014-Oct-30 23:26N 29°46' W 095°06'0 0.0
2014-Oct-30 22:26N 29°46' W 095°06'0 0.0
2014-Oct-30 21:33N 29°46' W 095°06'0 0.0
2014-Oct-30 20:30N 29°46' W 095°06'0 0.0
2014-Oct-30 19:25N 29°46' W 095°06'0 0.0
2014-Oct-30 18:32N 29°46' W 095°06'0 0.0
2014-Oct-30 17:33N 29°46' W 095°06'0 0.0
2014-Oct-30 16:30N 29°46' W 095°06'0 0.0
2014-Oct-30 15:32N 29°46' W 095°06'0 0.0
2014-Oct-30 14:33N 29°46' W 095°06'1 0.6
2014-Oct-30 13:32N 29°45' W 095°06'0 0.0
2014-Oct-30 12:32N 29°45' W 095°06'0 0.0
2014-Oct-29 21:33N 29°45' W 095°06'1 0.7
2014-Oct-29 20:33N 29°46' W 095°06'4 3.8
2014-Oct-29 19:33N 29°44' W 095°02'1 1.0
2014-Oct-29 18:33N 29°44' W 095°03'4 3.8
2014-Oct-29 17:30N 29°44' W 095°08'0 0.1
2014-Oct-29 15:33N 29°44' W 095°08'0 0.0
2014-Oct-29 13:31N 29°44' W 095°08'0 0.0
2014-Oct-29 12:33N 29°44' W 095°08'0 0.0
2014-Oct-29 11:33N 29°44' W 095°08'0 0.0
2014-Oct-29 10:30N 29°44' W 095°08'0 0.0
2014-Oct-29 09:33N 29°44' W 095°08'0 0.0
2014-Oct-29 08:33N 29°44' W 095°08'0 0.0
2014-Oct-29 07:33N 29°44' W 095°08'0 0.0
2014-Oct-29 06:33N 29°44' W 095°08'0 0.0
2014-Oct-29 05:33N 29°44' W 095°08'0 0.0
2014-Oct-29 04:33N 29°44' W 095°08'0 0.0
2014-Oct-29 03:31N 29°44' W 095°08'0 0.0
2014-Oct-29 02:33N 29°44' W 095°08'0 0.0
2014-Oct-29 01:12N 29°44' W 095°08'0 0.0
2014-Oct-29 00:27N 29°44' W 095°08'0 0.0
2014-Oct-28 20:06N 29°44' W 095°08'0 0.4
2014-Oct-28 19:33N 29°44' W 095°08'3 2.6
2014-Oct-28 18:33N 29°46' W 095°05'0 0.0
2014-Oct-28 17:33N 29°46' W 095°05'0 0.0
2014-Oct-28 16:33N 29°46' W 095°05'0 0.0
2014-Oct-28 15:33N 29°46' W 095°05'0 0.0
2014-Oct-28 14:33N 29°46' W 095°05'2 2.0
2014-Oct-28 13:33N 29°45' W 095°04'4 4.1
2014-Oct-28 12:33N 29°42' W 095°00'5 0.4
2014-Oct-28 00:20N 29°37' W 095°01'0 0.0
2014-Oct-27 23:33N 29°37' W 095°01'0 0.0
2014-Oct-27 22:33N 29°37' W 095°01'0 0.0
2014-Oct-27 21:33N 29°37' W 095°01'0 0.0
2014-Oct-27 20:33N 29°37' W 095°01'0 0.0
2014-Oct-27 19:33N 29°37' W 095°01'0 0.0
2014-Oct-27 18:33N 29°37' W 095°01'0 0.0
2014-Oct-27 17:33N 29°37' W 095°01'0 0.0
2014-Oct-27 16:33N 29°37' W 095°01'0 0.0
2014-Oct-27 15:33N 29°37' W 095°01'0 0.1
2014-Oct-27 14:33N 29°37' W 095°01'0 0.0
2014-Oct-27 13:33N 29°37' W 095°01'0 0.1
2014-Oct-27 12:33N 29°37' W 095°01'0 0.2
2014-Oct-27 11:34N 29°37' W 095°02'0 0.0
2014-Oct-27 10:33N 29°37' W 095°02'0 0.0
2014-Oct-27 09:33N 29°37' W 095°02'0 0.0
2014-Oct-27 08:33N 29°37' W 095°02'0 0.0
2014-Oct-27 07:33N 29°37' W 095°02'0 0.0
2014-Oct-27 06:33N 29°37' W 095°02'0 0.0
2014-Oct-27 05:33N 29°37' W 095°02'0 0.0
2014-Oct-27 04:33N 29°37' W 095°02'0 0.0
2014-Oct-27 03:33N 29°37' W 095°02'0 0.0
2014-Oct-27 02:33N 29°37' W 095°02'0 0.0
2014-Oct-27 01:33N 29°37' W 095°02'0 0.0
2014-Oct-27 00:33N 29°37' W 095°02'0 0.0
2014-Oct-26 23:33N 29°37' W 095°02'0 0.0
2014-Oct-26 22:33N 29°37' W 095°02'0 0.0
2014-Oct-26 21:33N 29°37' W 095°02'0 0.0
2014-Oct-26 20:33N 29°37' W 095°02'0 0.0
2014-Oct-26 19:33N 29°37' W 095°01'0 0.0
2014-Oct-26 18:33N 29°37' W 095°01'0 0.0
2014-Oct-26 17:33N 29°37' W 095°01'0 0.0
2014-Oct-26 16:33N 29°37' W 095°01'0 0.0
2014-Oct-26 15:33N 29°37' W 095°01'0 0.1
2014-Oct-26 14:33N 29°37' W 095°01'0 0.0
2014-Oct-26 13:33N 29°37' W 095°01'0 0.0
2014-Oct-26 12:33N 29°37' W 095°01'0 0.0
2014-Oct-26 06:33N 29°37' W 095°01'0 0.0
2014-Oct-26 05:33N 29°37' W 095°01'0 0.0
2014-Oct-26 04:33N 29°37' W 095°01'0 0.0
2014-Oct-26 03:33N 29°37' W 095°01'0 0.0
2014-Oct-26 02:33N 29°37' W 095°01'0 0.0
2014-Oct-26 01:33N 29°37' W 095°01'0 0.0
2014-Oct-26 00:33N 29°37' W 095°01'0 0.0
2014-Oct-25 23:33N 29°37' W 095°01'0 0.0
2014-Oct-25 22:33N 29°37' W 095°01'0 0.0
2014-Oct-25 21:33N 29°37' W 095°01'0 0.0
2014-Oct-25 20:33N 29°37' W 095°01'0 0.0
2014-Oct-25 19:33N 29°37' W 095°01'0 0.0
2014-Oct-25 18:33N 29°37' W 095°01'0 0.0
2014-Oct-25 17:33N 29°37' W 095°01'0 0.0
2014-Oct-25 16:33N 29°37' W 095°01'0 0.0
2014-Oct-25 15:33N 29°37' W 095°01'0 0.0
2014-Oct-25 14:33N 29°37' W 095°01'0 0.0
2014-Oct-25 13:33N 29°37' W 095°01'0 0.0
2014-Oct-25 12:33N 29°37' W 095°01'0 0.0
2014-Oct-25 11:33N 29°37' W 095°01'0 0.0
2014-Oct-25 10:33N 29°37' W 095°01'0 0.0
2014-Oct-25 09:33N 29°37' W 095°01'0 0.0
2014-Oct-25 08:33N 29°37' W 095°01'0 0.0
2014-Oct-25 07:33N 29°37' W 095°01'0 0.0
2014-Oct-25 06:33N 29°37' W 095°01'0 0.0
2014-Oct-25 05:33N 29°37' W 095°01'0 0.0
2014-Oct-25 04:33N 29°37' W 095°01'0 0.0
2014-Oct-25 03:33N 29°37' W 095°01'0 0.0
2014-Oct-25 02:33N 29°37' W 095°01'0 0.0
2014-Oct-25 01:33N 29°37' W 095°01'0 0.0
2014-Oct-25 00:33N 29°37' W 095°01'0 0.0
2014-Oct-24 23:33N 29°37' W 095°01'0 0.0
2014-Oct-24 22:33N 29°37' W 095°01'0 0.0
2014-Oct-24 21:33N 29°37' W 095°01'0 0.0
2014-Oct-24 20:33N 29°37' W 095°01'0 0.0
2014-Oct-24 19:33N 29°37' W 095°01'0 0.0
2014-Oct-24 18:33N 29°37' W 095°01'0 0.0
2014-Oct-24 17:33N 29°37' W 095°01'0 0.0
2014-Oct-24 16:33N 29°37' W 095°01'0 0.0
2014-Oct-24 15:33N 29°37' W 095°01'0 0.1
2014-Oct-24 14:33N 29°37' W 095°01'4 4.5
2014-Oct-24 13:33N 29°36' W 094°56'6 6.5
2014-Oct-24 12:33N 29°30' W 094°52'6 6.0
2014-Oct-24 11:30N 29°24' W 094°49'3 3.2
2014-Oct-24 10:31N 29°23' W 094°46'3 3.5
2014-Oct-24 09:31N 29°26' W 094°43'4 3.9
2014-Oct-24 08:30N 29°28' W 094°39'5 4.4
2014-Oct-24 07:26N 29°30' W 094°34'7 3.2
2014-Oct-24 05:11N 29°34' W 094°27'3 3.8
2014-Oct-24 04:29N 29°35' W 094°25'  

Dump ship's entire track history